Change the Weather History Date:

Sunday, June 15, 2014

  Actual Average Record
Temperature  
Mean Temperature 47 °F 55 °F  
Max Temperature 63 °F 70 °F 90 °F (1933)
Min Temperature 31 °F 41 °F 26 °F (1991)
Degree Days  
Heating Degree Days 18 10  
Month to date heating degree days 183 173  
Since 1 June heating degree days 183 173  
Since 1 July heating degree days 8932 9105  
Cooling Degree Days 0 0  
Month to date cooling degree days 0 0  
Year to date cooling degree days 0 0  
Since 1 June cooling degree days 0 0  
Moisture  
Dew Point 35 °F    
Average Humidity 64    
Maximum Humidity 100    
Minimum Humidity 27    
Precipitation  
Precipitation 0.26 in 0.08 in 0.57 in (1993)
Month to date precipitation 0.72 1.31  
Year to date precipitation 5.00 6.22  
Sea Level Pressure  
Sea Level Pressure 29.79 in    
Wind  
Wind Speed 6 mph (NNW)    
Max Wind Speed 24 mph    
Max Gust Speed 33 mph    
Visibility 9 miles    
Events Rain    
T = Trace of Precipitation, MM = Missing Value Source: NWS Daily Summary

Daily Weather History Graph

Daily Weather History Graph

Search for Another Location

Airport or City:

Trip Planner

Search our weather history database for the weather conditions in past years. The results will help you decide how hot, cold, wet, or windy it might be!

Date:

Astronomy

Jun. 15, 2014 Rise Set
Actual Time 5:38 AM MDT 9:22 PM MDT
Civil Twilight 5:00 AM MDT 10:00 PM MDT
Nautical Twilight 4:08 AM MDT 10:52 PM MDT
Astronomical Twilight 2:57 AM MDT 12:04 AM MDT
Moon 11:25 PM MDT (6/15) 8:44 AM MDT (6/15)
Length of Visible Light 17h 00m
Length of Day
15h 43m
Waning Gibbous, 91% of the Moon is Illuminated
Jun 15
Waning Gibbous
Jun 19
Last Quarter
Jun 27
New
Jul 5
First Quarter
Jul 12
Full

Hourly Weather History & Observations

Time (MDT) Temp. Windchill Dew Point Humidity Pressure Visibility Wind Dir Wind Speed Gust Speed Precip Events Conditions
12:53 AM 44.1 °F 40.1 °F 36.0 °F 73% 29.89 in 10.0 mi NW 6.9 mph - N/A   Partly Cloudy
1:53 AM 42.1 °F 38.4 °F 35.1 °F 76% 29.88 in 10.0 mi WNW 5.8 mph - N/A   Clear
2:53 AM 39.0 °F - 34.0 °F 82% 29.89 in 10.0 mi Calm Calm - N/A   Clear
3:53 AM 37.9 °F 33.5 °F 34.0 °F 86% 29.88 in 10.0 mi SE 5.8 mph - N/A   Clear
4:53 AM 34.0 °F 29.8 °F 32.0 °F 92% 29.88 in 10.0 mi SSE 4.6 mph - N/A   Clear
5:53 AM 30.9 °F 27.5 °F 28.9 °F 92% 29.89 in 10.0 mi East 3.5 mph - N/A   Partly Cloudy
6:53 AM 35.1 °F 30.1 °F 32.0 °F 89% 29.90 in 10.0 mi ESE 5.8 mph - N/A   Clear
7:53 AM 41.0 °F - 35.1 °F 79% 29.87 in 10.0 mi Calm Calm - N/A   Clear
8:53 AM 48.0 °F - 36.0 °F 63% 29.83 in 10.0 mi Variable 3.5 mph - N/A   Clear
9:53 AM 51.1 °F - 32.0 °F 48% 29.81 in 10.0 mi Calm Calm - N/A   Clear
10:53 AM 53.1 °F - 30.0 °F 41% 29.79 in 10.0 mi Variable 3.5 mph - N/A   Mostly Cloudy
11:53 AM 57.0 °F - 30.0 °F 36% 29.76 in 10.0 mi North 6.9 mph - N/A   Scattered Clouds
12:53 PM 60.1 °F - 30.0 °F 32% 29.74 in 10.0 mi NE 9.2 mph - N/A   Mostly Cloudy
1:53 PM 60.1 °F - 30.0 °F 32% 29.72 in 10.0 mi East 6.9 mph - N/A   Scattered Clouds
2:53 PM 60.1 °F - 27.0 °F 28% 29.71 in 10.0 mi North - - N/A   Overcast
3:53 PM 60.1 °F - 27.0 °F 28% 29.70 in 10.0 mi Variable 3.5 mph - N/A   Mostly Cloudy
4:53 PM 63.0 °F - 28.0 °F 27% 29.68 in 10.0 mi NNE 8.1 mph - N/A   Overcast
5:53 PM 63.0 °F - 28.0 °F 27% 29.68 in 10.0 mi NNW 9.2 mph - N/A   Overcast
6:53 PM 61.0 °F - 28.0 °F 29% 29.67 in 10.0 mi North 5.8 mph - N/A   Overcast
7:53 PM 57.0 °F - 33.1 °F 40% 29.68 in 10.0 mi West 20.7 mph 33.4 mph N/A   Overcast
8:53 PM 52.0 °F - 39.0 °F 61% 29.71 in 10.0 mi WNW 10.4 mph - 0.01 in Rain Light Rain
9:43 PM 46.9 °F - 45.0 °F 93% 29.81 in 6.0 mi NW 6.9 mph - 0.05 in Rain Rain
9:53 PM 46.9 °F - 46.0 °F 97% 29.74 in 4.0 mi WNW 6.9 mph - 0.09 in Rain Rain
10:46 PM 46.0 °F 41.9 °F 46.0 °F 100% 29.82 in 7.0 mi WNW 8.1 mph - 0.10 in Rain Light Rain
10:53 PM 45.0 °F 40.1 °F 44.1 °F 97% 29.75 in 7.0 mi WNW 9.2 mph - 0.11 in Rain Rain
11:00 PM 45.0 °F 38.9 °F 44.1 °F 97% 29.82 in 6.0 mi WNW 12.7 mph - 0.02 in Rain Rain
11:53 PM 44.1 °F 41.5 °F 44.1 °F 100% 29.72 in 10.0 mi NNE 4.6 mph - 0.05 in Rain Light Rain